FW4125 Weather Reports


time (UTC)temp
C
wind
direction
speed
KPH
gust
KPH
rain 1hr
cm
rain 24hr
cm
rain mn
cm
humidity
%
barometer
mb
20260506020026 21 57 1.6 8.0 0.00 0.00 0.00 51
20260506014530 21 39 1.6 6.4 0.00 0.00 0.00 50
20260506013024 22 24 0.0 4.8 0.00 0.00 0.00 50
20260506011532 22 51 0.0 6.4 0.00 0.00 0.00 50
20260506010034 23 61 0.0 8.0 0.00 0.00 0.00 49
20260506004539 23 77 1.6 6.4 0.00 0.00 0.00 48
20260506003046 24 34 1.6 8.0 0.00 0.00 0.00 47
20260506001551 25 60 0.0 4.8 0.00 0.00 0.00 46
20260506000054 26 59 1.6 8.0 0.00 0.00 0.00 45
20260505234607 27 58 1.6 8.0 0.00 0.00 0.00 44
20260505233054 27 66 3.2 9.7 0.00 0.00 0.00 42
20260505231607 28 245 1.6 6.4 0.00 0.00 0.00 40
20260505230057 30 119 1.6 9.7 0.00 0.00 0.00 38
20260505224600 30 354 1.6 4.8 0.00 0.00 0.00 37
20260505223001 31 256 1.6 6.4 0.00 0.00 0.00 35
20260505221503 31 217 1.6 8.0 0.00 0.00 0.00 34
20260505220005 32 73 1.6 9.7 0.00 0.00 0.00 31
20260505214513 33 213 1.6 4.8 0.00 0.00 0.00 32
20260505213008 33 293 1.6 9.7 0.00 0.00 0.00 32
20260505211510 33 252 3.2 11.3 0.00 0.00 0.00 32
20260505210007 33 268 3.2 8.0 0.00 0.00 0.00 36 720.7
20260505204510 32 265 3.2 8.0 0.00 0.00 0.00 37 720.7
20260505203009 32 224 3.2 11.3 0.00 0.00 0.00 38 720.7
20260505201513 32 257 3.2 11.3 0.00 0.00 0.00 38 720.7
20260505200013 32 233 0.0 11.3 0.00 0.00 0.00 40 720.7
20260505194509 31 245 4.8 11.3 0.00 0.00 0.00 42 720.7
20260505193010 31 221 4.8 9.7 0.00 0.00 0.00 44 720.7
20260505191510 30 233 4.8 11.3 0.00 0.00 0.00 46 720.7
20260505190007 29 203 1.6 14.5 0.00 0.00 0.00 47 720.7
20260505184502 28 235 3.2 14.5 0.00 0.00 0.00 49 720.7
20260505183107 28 261 4.8 16.1 0.00 0.00 0.00 49 720.7
20260505181600 28 224 4.8 12.9 0.00 0.00 0.00 49 720.7
20260505180105 27 235 4.8 12.9 0.00 0.00 0.00 51 720.7
20260505174605 27 221 4.8 17.7 0.00 0.00 0.00 52 720.7
20260505173059 27 232 8.0 17.7 0.00 0.00 0.00 52 720.7
20260505171600 27 230 3.2 16.1 0.00 0.00 0.00 53 720.7
20260505170059 26 235 4.8 14.5 0.00 0.00 0.00 54 720.7
20260505164605 26 208 3.2 12.9 0.00 0.00 0.00 56 720.7
20260505163057 25 234 3.2 17.7 0.00 0.00 0.00 56 809.3
20260505161604 25 249 4.8 11.3 0.00 0.00 0.00 56 809.3
20260505153054 23 228 4.8 12.9 0.00 0.00 0.00 59 809.3
20260505151600 23 218 1.6 12.9 0.00 0.00 0.00 60 809.3
20260505140113 22 227 4.8 11.3 0.00 0.00 0.00 66 809.3
20260505124520 21 214 3.2 8.0 0.00 0.00 0.00 67 809.3
20260505123019 21 231 3.2 8.0 0.00 0.00 0.00 67 809.3
20260505121522 21 240 1.6 9.7 0.00 0.00 0.00 66 809.3
20260505120032 21 236 3.2 8.0 0.00 0.00 0.00 66 809.3
20260505114523 21 229 3.2 11.3 0.00 0.00 0.00 66 809.3
20260505113027 21 228 3.2 8.0 0.00 0.00 0.00 66 809.3
20260505111531 21 224 3.2 11.3 0.00 0.00 0.00 65 809.3
20260505101541 21 232 3.2 9.7 0.00 0.00 0.00 64 809.3
20260505100032 21 247 3.2 14.5 0.00 0.00 0.00 64 809.3
20260505094538 21 267 4.8 9.7 0.00 0.00 0.00 63 809.3
20260505093034 21 200 3.2 16.1 0.00 0.00 0.00 63 809.3
20260505091542 21 229 3.2 17.7 0.00 0.00 0.00 63 809.3
20260505090041 22 233 4.8 12.9 0.00 0.00 0.00 62 809.3
20260505084543 22 200 3.2 12.9 0.00 0.00 0.00 62 809.3
20260505083041 22 185 4.8 9.7 0.00 0.00 0.00 62 809.3
20260505081544 22 177 6.4 16.1 0.00 0.00 0.00 62 809.3
20260505080044 22 229 4.8 12.9 0.00 0.00 0.00 61 809.3
20260505074540 22 235 3.2 14.5 0.00 0.00 0.00 61 809.3
20260505073049 22 207 3.2 12.9 0.00 0.00 0.00 60 809.3
20260505071552 22 222 3.2 12.9 0.00 0.00 0.00 59 809.3
20260505070041 22 229 3.2 12.9 0.00 0.00 0.00 58 809.3
20260505064548 22 210 3.2 11.3 0.00 0.00 0.00 57 809.3
20260505063043 22 226 3.2 11.3 0.00 0.00 0.00 57 809.3
20260505061548 23 216 1.6 8.0 0.00 0.00 0.00 56 809.3
20260505060049 23 241 1.6 11.3 0.00 0.00 0.00 56 809.3
20260505054543 22 221 3.2 11.3 0.00 0.00 0.00 56 809.3
20260505053042 22 209 3.2 9.7 0.00 0.00 0.00 56 809.3
20260505051558 22 194 3.2 8.0 0.00 0.00 0.00 56 809.3
20260505041602 23 167 3.2 8.0 0.00 0.00 0.00 55 809.3
20260505034502 23 207 3.2 8.0 0.00 0.00 0.00 54 809.3
20260505033004 23 175 3.2 11.3 0.00 0.00 0.00 53 809.3
20260505031509 23 175 3.2 12.9 0.00 0.00 0.00 53 809.3
20260505030008 23 171 3.2 11.3 0.00 0.00 0.00 53 809.3
20260505024515 23 214 3.2 9.7 0.00 0.00 0.00 53 809.3
20260505023022 24 175 3.2 11.3 0.00 0.00 0.00 52 809.3
20260505021529 24 172 3.2 8.0 0.00 0.00 0.00 52 809.3